Location: Boiro
(42.6475°N, 8.8834°W)
Time: 17:44:35
(UTC+01:00)

Tiros 1 despin weight - Pass Details

Date: 08 December 2021
Orbit: 592 x 641 km, 48.2° (Epoch: 20 January)

Event Time Altitude Azimuth Distance (km) Brightness Sun altitude
Rises 15:42:35 0° 282° (WNW) 2,837 ? 17.6°
Reaches altitude 10° 15:45:00 10° 290° (WNW) 1,930 ? 17.3°
Maximum altitude 15:49:09 39° 360° (N) 890 ? 16.9°
Drops below altitude 10° 15:53:18 10° 70° (ENE) 1,921 ? 16.5°
Sets 15:55:42 0° 78° (ENE) 2,823 ? 16.2°
